Corpus Christi NAS, TX

3:16 AM CDT on April 30, 2017 (GMT -0500)
Corpus Christi Naval Air Station-Truax

Weather History for KNGP - April, 2013

Change the Weather History Date:

Friday, April 12, 2013

  Actual Average Record
Temperature  
Mean Temperature 63 °F -  
Max Temperature 73 °F 76 °F 91 °F (2009)
Min Temperature 53 °F 63 °F 46 °F (1997)
Degree Days  
Heating Degree Days 2    
Growing Degree Days 13 (Base 50)    
Moisture  
Dew Point 58 °F    
Average Humidity 78    
Maximum Humidity 100    
Minimum Humidity 59    
Precipitation  
Precipitation 0.00 in - - ()
Sea Level Pressure  
Sea Level Pressure 29.92 in    
Wind  
Wind Speed 7 mph (East)    
Max Wind Speed 18 mph    
Max Gust Speed 23 mph    
Visibility 10 miles    
Events      
Averages and records for this station are not official NWS values.
T = Trace of Precipitation, MM = Missing Value Source: NWS Daily Summary

Daily Weather History Graph

Daily Weather History Graph

Search for Another Location

Airport or City:

Trip Planner

Search our weather history database for the weather conditions in past years. The results will help you decide how hot, cold, wet, or windy it might be!

Date:

Astronomy

Apr. 12, 2013 Rise Set
Actual Time 7:07 AM CDT 7:52 PM CDT
Civil Twilight 6:43 AM CDT 8:16 PM CDT
Nautical Twilight 6:15 AM CDT 8:44 PM CDT
Astronomical Twilight 5:46 AM CDT 9:13 PM CDT
Moon 8:29 AM CDT (4/12) 10:11 PM CDT (4/12)
Length of Visible Light 13h 33m
Length of Day
12h 45m
Waxing Crescent, 5% of the Moon is Illuminated
Apr 12
Waxing Crescent
Apr 18
First Quarter
Apr 25
Full
May 2
Last Quarter
May 9
New

Hourly Weather History & Observations

Time (CDT) Temp. Dew Point Humidity Pressure Visibility Wind Dir Wind Speed Gust Speed Precip Events Conditions
12:56 AM 55.9 °F 54.0 °F 93% 29.91 in 10.0 mi WSW 3.5 mph - N/A   Clear
1:56 AM 55.0 °F 53.1 °F 93% 29.89 in 10.0 mi Calm Calm - N/A   Clear
2:56 AM 55.0 °F 53.1 °F 93% 29.88 in 10.0 mi Calm Calm - N/A   Clear
3:56 AM 55.0 °F 53.1 °F 93% 29.88 in 10.0 mi Calm Calm - N/A   Clear
4:56 AM 55.9 °F 54.0 °F 93% 29.88 in 10.0 mi Calm Calm - N/A   Clear
5:56 AM 55.0 °F 53.1 °F 93% 29.90 in 10.0 mi Calm Calm - N/A   Clear
6:56 AM 54.0 °F 54.0 °F 100% 29.92 in 10.0 mi Calm Calm - N/A   Clear
7:00 AM 53.6 °F 53.6 °F 100% 29.92 in 10.0 mi Calm Calm - N/A   Partly Cloudy
7:56 AM 60.1 °F 57.9 °F 93% 29.93 in 10.0 mi NNE 4.6 mph - N/A   Mostly Cloudy
8:56 AM 66.9 °F 57.0 °F 70% 29.95 in 10.0 mi East 9.2 mph - N/A   Mostly Cloudy
9:56 AM 69.1 °F 57.9 °F 68% 29.96 in 10.0 mi ENE 11.5 mph - N/A   Mostly Cloudy
10:56 AM 71.1 °F 57.9 °F 63% 29.97 in 10.0 mi East 11.5 mph - N/A   Mostly Cloudy
11:56 AM 72.0 °F 59.0 °F 64% 29.97 in 10.0 mi ENE 15.0 mph - N/A   Mostly Cloudy
12:56 PM 72.0 °F 59.0 °F 64% 29.95 in 10.0 mi East 15.0 mph 19.6 mph N/A   Mostly Cloudy
1:56 PM 73.9 °F 59.0 °F 59% 29.94 in 10.0 mi East 15.0 mph - N/A   Mostly Cloudy
2:56 PM 73.0 °F 59.0 °F 61% 29.92 in 10.0 mi East 17.3 mph - N/A   Mostly Cloudy
3:56 PM 73.0 °F 59.0 °F 61% 29.90 in 10.0 mi East 17.3 mph - N/A   Mostly Cloudy
4:10 PM 73.4 °F 60.8 °F 65% 29.89 in 9.0 mi ESE 18.4 mph 23.0 mph N/A   Mostly Cloudy
4:56 PM 73.0 °F 60.1 °F 64% 29.88 in 10.0 mi East 17.3 mph - N/A   Mostly Cloudy
5:56 PM 72.0 °F 60.1 °F 66% 29.88 in 10.0 mi East 18.4 mph - N/A   Mostly Cloudy
6:56 PM 69.1 °F 60.1 °F 73% 29.88 in 10.0 mi ESE 17.3 mph - N/A   Mostly Cloudy
7:56 PM 68.0 °F 60.1 °F 76% 29.88 in 10.0 mi ESE 18.4 mph - N/A   Mostly Cloudy
8:56 PM 66.9 °F 61.0 °F 81% 29.90 in 10.0 mi ESE 16.1 mph - N/A   Clear
9:56 PM 66.9 °F 61.0 °F 81% 29.92 in 10.0 mi SE 12.7 mph - N/A   Clear
10:56 PM 66.0 °F 61.0 °F 84% 29.94 in 10.0 mi SE 11.5 mph - N/A   Clear
11:56 PM 66.0 °F 62.1 °F 87% 29.95 in 10.0 mi ESE 11.5 mph - N/A   Clear